Regional Weather Roundup
Issued by NWS

Home | Current Version | Previous Version | Graphics & Text | Print | Product List | Glossary On
Versions: 1 2 3 4 5 6 7 8 9 10 11 12 13 14 15 16 17 18 19 20 21 22 23 24 25 26 27 28 29 30 31 32 33 34 35 36 37 38 39 40 41 42 43 44 45 46 47 48 49 50
000
ASUS44 KMEG 231510
RWRTN
TENNESSEE HOURLY STATE WEATHER ROUNDUP
NATIONAL WEATHER SERVICE MEMPHIS TN
900 AM CST MON JAN 23 2017

TNZ002-004-019-021-049-052-054-088>092-231600-
WEST TENNESSEE

CITY           SKY/WX    TMP DP  RH WIND       PRES   REMARKS
MEMPHIS INTL   MOSUNNY   45  37  73 N14G24    29.80R
NWS MEMPHIS      N/A     44 N/A N/A MISG        N/A
JACKSON        MOSUNNY   44  37  76 NW15G26   29.76R
DYERSBURG      CLOUDY    43  34  70 N15       29.79R
UNION CITY     PTSUNNY   41  41 100 N15       29.75R
PARIS          PTSUNNY   39  36  87 CALM      29.72R
HUNTINGDON     PTSUNNY   43  37  81 NW12G21   29.72R
$$

TNZ008-025-027-028-033-062-065-066-231600-
NORTH MIDDLE TENNESSEE

CITY           SKY/WX    TMP DP  RH WIND       PRES   REMARKS
NASHVILLE      CLOUDY    47  41  80 NW15G23   29.61R
PORTLAND       CLOUDY    46  45  93 NW13G23   29.59R FOG
CLARKSVILLE    CLOUDY    45  38  76 NW18G29   29.67R
SMYRNA         CLOUDY    48  43  82 NW20G25   29.60R
GALLATIN       CLOUDY    48  43  81 NW14G23   29.61R FOG
CROSSVILLE     LGT RAIN  50  46  86 NW22G32   29.43R
$$

TNZ061-075-076-078-094-096-097-231600-
SOUTH MIDDLE TENNESSEE

CITY           SKY/WX    TMP DP  RH WIND       PRES   REMARKS
TULLAHOMA      CLOUDY    46  45  93 NW17      29.55R
WINCHESTER     CLOUDY    48  45  87 NW14      29.52R
MCMINNVILLE    MOSUNNY   48  48 100 NW17        N/A
COLUMBIA       CLOUDY    46  46 100 NW9       29.62R
SHELBYVILLE    CLOUDY    48  46  93 NW18      29.58R
$$

TNZ017-018-042-046-047-231600-
NORTHEAST TENNESSEE

CITY           SKY/WX    TMP DP  RH WIND       PRES   REMARKS
TRI CITIES     LGT RAIN  51  50  96 NE8       29.27R
ELIZABETHTON   LGT RAIN  50  50 100 CALM      29.26R
$$

TNZ012-013-036-069-073-074-231600-
CENTRAL EAST TENNESSEE

CITY           SKY/WX    TMP DP  RH WIND       PRES   REMARKS
KNOXVILLE      LGT RAIN  50  48  93 W5        29.35R
OAK RIDGE      CLOUDY    52  49  89 S5        29.36R
GATLINBURG     PTSUNNY   48  46  93 W7        29.33R
MORRISTOWN     PTSUNNY   52  50  93 N7        29.30R
JACKSBORO      PTSUNNY   54  52  94 CALM      29.39R FOG
$$

TNZ083-085-099-231600-
SOUTHEAST TENNESSEE

CITY           SKY/WX    TMP DP  RH WIND       PRES   REMARKS
CHATTANOOGA    LGT RAIN  55  49  80 NW18G31   29.42R
$$

SKY/WX REPORTED AS FAIR MEANS FEW OR NO CLOUDS BELOW
12 THOUSAND FEET.




USA.gov is the U.S. government's official web portal to all federal, state and local government web resources and services.